TimeEST,TemperatureF,Dew PointF,Humidity,Sea Level PressureIn,VisibilityMPH,Wind Direction,Wind SpeedMPH,Gust SpeedMPH,PrecipitationIn,Events,Conditions,WindDirDegrees,DateUTC
12:53 AM,41.0,37.0,86,29.81,6.0,South,3.5,-,0.02,Rain,Light Rain,180,2014-01-14 05:53:00
1:53 AM,39.9,37.9,93,29.79,5.0,Calm,Calm,-,0.03,Rain,Light Rain,0,2014-01-14 06:53:00
2:53 AM,41.0,39.0,93,29.78,9.0,Calm,Calm,-,0.00,,Overcast,0,2014-01-14 07:53:00
3:53 AM,39.9,37.9,93,29.78,7.0,Calm,Calm,-,0.00,Rain,Light Rain,0,2014-01-14 08:53:00
4:53 AM,41.0,37.9,89,29.75,10.0,West,3.5,-,0.00,,Overcast,260,2014-01-14 09:53:00
5:23 AM,37.9,37.0,97,29.74,2.5,Calm,Calm,-,N/A,,Overcast,0,2014-01-14 10:23:00
5:32 AM,37.9,37.0,97,29.75,4.0,NW,3.5,-,0.00,Rain,Light Rain,320,2014-01-14 10:32:00
5:53 AM,39.0,37.9,96,29.75,5.0,SSW,3.5,-,0.00,Rain,Light Rain,210,2014-01-14 10:53:00
6:53 AM,39.0,37.9,96,29.75,4.0,Calm,Calm,-,0.01,Rain,Light Rain,0,2014-01-14 11:53:00
7:53 AM,42.1,39.9,92,29.76,6.0,Calm,Calm,-,0.03,Rain,Light Rain,0,2014-01-14 12:53:00
8:53 AM,42.1,39.9,92,29.77,5.0,SSW,4.6,-,0.03,Rain,Light Rain,210,2014-01-14 13:53:00
9:53 AM,43.0,41.0,93,29.78,5.0,Calm,Calm,-,0.03,Rain,Light Rain,0,2014-01-14 14:53:00
10:24 AM,42.1,41.0,96,29.78,2.0,Calm,Calm,-,0.01,Rain,Light Rain,0,2014-01-14 15:24:00
10:33 AM,42.1,41.0,96,29.77,1.8,Calm,Calm,-,0.01,Rain,Light Rain,0,2014-01-14 15:33:00
10:43 AM,42.1,41.0,96,29.77,2.5,Calm,Calm,-,0.02,Rain,Light Rain,0,2014-01-14 15:43:00
10:53 AM,43.0,42.1,97,29.78,2.5,Calm,Calm,-,0.02,Rain,Light Rain,0,2014-01-14 15:53:00
11:07 AM,43.0,42.1,97,29.76,3.0,Calm,Calm,-,0.01,Rain,Light Rain,0,2014-01-14 16:07:00
11:53 AM,44.1,42.1,93,29.74,3.0,Calm,Calm,-,0.01,Rain,Light Rain,0,2014-01-14 16:53:00
11:59 AM,44.1,42.1,93,29.75,1.8,Calm,Calm,-,0.01,Rain,Light Rain,0,2014-01-14 16:59:00
12:22 PM,43.0,42.1,97,29.74,2.0,Calm,Calm,-,0.01,Rain,Light Rain,0,2014-01-14 17:22:00
12:45 PM,44.1,42.1,93,29.73,3.0,Calm,Calm,-,0.02,Rain,Light Rain,0,2014-01-14 17:45:00
12:53 PM,43.0,42.1,97,29.74,3.0,Calm,Calm,-,0.02,Rain,Light Rain,0,2014-01-14 17:53:00
1:22 PM,44.1,43.0,96,29.71,3.0,Calm,Calm,-,0.01,Rain,Light Rain,0,2014-01-14 18:22:00
1:31 PM,44.1,42.1,93,29.73,3.0,South,3.5,-,0.01,,Overcast,180,2014-01-14 18:31:00
1:53 PM,44.1,42.1,93,29.74,3.0,Calm,Calm,-,0.01,,Overcast,0,2014-01-14 18:53:00
2:06 PM,44.1,42.1,93,29.74,4.0,Calm,Calm,-,0.00,Rain,Light Rain,0,2014-01-14 19:06:00
2:19 PM,43.0,41.0,93,29.72,2.5,ESE,3.5,-,0.00,Rain,Light Rain,120,2014-01-14 19:19:00
2:35 PM,44.1,43.0,96,29.72,2.0,SSE,3.5,-,0.00,,Overcast,160,2014-01-14 19:35:00
2:53 PM,44.1,43.0,96,29.71,2.5,Calm,Calm,-,0.00,,Mostly Cloudy,0,2014-01-14 19:53:00
3:18 PM,43.0,41.0,93,29.70,1.8,SE,4.6,-,N/A,,Overcast,130,2014-01-14 20:18:00
3:27 PM,43.0,42.1,97,29.71,1.8,SSW,3.5,-,N/A,,Overcast,200,2014-01-14 20:27:00
3:49 PM,42.8,42.8,100,29.74,2.0,Calm,Calm,-,N/A,,Mostly Cloudy,0,2014-01-14 20:49:00
3:53 PM,43.0,42.1,97,29.75,2.0,Calm,Calm,-,N/A,,Mostly Cloudy,0,2014-01-14 20:53:00
4:20 PM,43.0,41.0,93,29.76,1.2,Calm,Calm,-,N/A,,Scattered Clouds,0,2014-01-14 21:20:00
4:28 PM,42.1,41.0,96,29.76,0.8,Calm,Calm,-,N/A,,Mostly Cloudy,0,2014-01-14 21:28:00
4:44 PM,42.1,41.0,96,29.77,1.2,SE,4.6,-,N/A,,Mostly Cloudy,130,2014-01-14 21:44:00
4:53 PM,43.0,41.0,93,29.78,1.2,ESE,3.5,-,N/A,,Mostly Cloudy,120,2014-01-14 21:53:00
5:16 PM,41.0,39.9,96,29.77,0.8,Calm,Calm,-,N/A,,Partly Cloudy,0,2014-01-14 22:16:00
5:19 PM,39.0,37.9,96,29.77,0.2,Calm,Calm,-,N/A,Fog,Fog,0,2014-01-14 22:19:00
5:53 PM,37.9,37.0,97,29.79,0.2,SSE,3.5,-,N/A,Fog,Fog,150,2014-01-14 22:53:00
6:53 PM,34.0,34.0,100,29.83,0.2,Calm,Calm,-,N/A,Fog,Fog,0,2014-01-14 23:53:00
7:53 PM,32.0,30.0,92,29.85,0.2,Calm,Calm,-,N/A,Fog,Fog,0,2014-01-15 00:53:00
8:53 PM,30.9,30.0,96,29.88,0.2,Calm,Calm,-,N/A,Fog,Light Freezing Fog,0,2014-01-15 01:53:00
9:53 PM,28.9,28.0,96,29.89,0.2,Calm,Calm,-,N/A,Fog,Light Freezing Fog,0,2014-01-15 02:53:00
10:53 PM,28.0,26.1,92,29.88,0.5,WNW,4.6,-,N/A,Fog,Light Freezing Fog,300,2014-01-15 03:53:00
11:53 PM,28.0,26.1,92,29.90,0.2,Calm,Calm,-,N/A,Fog,Light Freezing Fog,0,2014-01-15 04:53:00